TimeHST,TemperatureF,Dew PointF,Humidity,Sea Level PressureIn,VisibilityMPH,Wind Direction,Wind SpeedMPH,Gust SpeedMPH,PrecipitationIn,Events,Conditions,WindDirDegrees,DateUTC
12:54 AM,75.9,66.9,74,29.99,10.0,NE,6.9,-,N/A,,Overcast,40,2013-07-03 10:54:00
1:54 AM,75.0,66.0,73,29.97,10.0,NNE,6.9,-,N/A,,Overcast,30,2013-07-03 11:54:00
2:54 AM,75.0,68.0,79,29.96,10.0,NE,13.8,20.7,N/A,,Scattered Clouds,50,2013-07-03 12:54:00
3:54 AM,75.0,66.0,73,29.96,10.0,NE,9.2,-,N/A,,Overcast,40,2013-07-03 13:54:00
4:54 AM,75.0,69.1,82,29.97,10.0,NE,12.7,-,N/A,,Overcast,50,2013-07-03 14:54:00
5:54 AM,75.0,66.0,73,29.99,10.0,NNE,9.2,-,N/A,,Partly Cloudy,30,2013-07-03 15:54:00
6:54 AM,79.0,66.9,66,30.00,10.0,North,12.7,-,N/A,,Partly Cloudy,10,2013-07-03 16:54:00
7:54 AM,80.1,69.1,69,30.01,10.0,NNE,15.0,-,N/A,,Partly Cloudy,30,2013-07-03 17:54:00
8:54 AM,82.9,70.0,65,30.02,10.0,NNE,17.3,23.0,N/A,,Partly Cloudy,30,2013-07-03 18:54:00
9:54 AM,84.0,70.0,63,30.03,10.0,NE,16.1,-,N/A,,Scattered Clouds,40,2013-07-03 19:54:00
10:54 AM,84.0,69.1,61,30.03,10.0,ENE,13.8,21.9,N/A,,Scattered Clouds,60,2013-07-03 20:54:00
11:54 AM,84.9,69.1,59,30.02,10.0,NE,18.4,-,N/A,,Scattered Clouds,40,2013-07-03 21:54:00
12:54 PM,86.0,68.0,55,30.00,10.0,NE,18.4,-,0.01,,Scattered Clouds,40,2013-07-03 22:54:00
1:54 PM,86.0,70.0,59,29.99,10.0,NNE,21.9,-,N/A,,Scattered Clouds,30,2013-07-03 23:54:00
2:54 PM,86.0,70.0,59,29.99,10.0,NNE,20.7,-,N/A,,Scattered Clouds,30,2013-07-04 00:54:00
3:54 PM,84.0,70.0,63,29.98,10.0,NNE,20.7,-,N/A,,Scattered Clouds,30,2013-07-04 01:54:00
4:54 PM,82.9,69.1,63,29.98,10.0,NNE,18.4,-,N/A,,Scattered Clouds,30,2013-07-04 02:54:00
5:54 PM,82.0,70.0,67,29.98,10.0,NNE,16.1,-,N/A,,Scattered Clouds,30,2013-07-04 03:54:00
6:54 PM,79.0,70.0,74,30.00,10.0,NNE,13.8,-,N/A,,Partly Cloudy,30,2013-07-04 04:54:00
7:54 PM,78.1,70.0,76,30.02,10.0,NE,10.4,-,N/A,,Partly Cloudy,50,2013-07-04 05:54:00
8:54 PM,77.0,70.0,79,30.03,10.0,NNE,10.4,-,N/A,,Scattered Clouds,30,2013-07-04 06:54:00
9:54 PM,75.9,70.0,82,30.04,10.0,NE,8.1,-,N/A,,Scattered Clouds,40,2013-07-04 07:54:00
10:54 PM,73.9,69.1,85,30.04,10.0,Calm,Calm,-,N/A,,Clear,0,2013-07-04 08:54:00
11:54 PM,75.0,68.0,79,30.03,10.0,North,4.6,-,N/A,,Clear,10,2013-07-04 09:54:00